Lake Clear, NY

5:49 AM EST on February 12, 2016 (GMT -0500)
Adirondack Regional

Weather History for KSLK - July, 2013

Change the Weather History Date:

Monday, July 29, 2013

  Actual Average Record
Temperature  
Mean Temperature 61 °F 63 °F  
Max Temperature 71 °F 75 °F 91 °F (1949)
Min Temperature 50 °F 51 °F 36 °F (1987)
Degree Days  
Heating Degree Days 4 3  
Month to date heating degree days 87  
Since 1 June heating degree days 271  
Since 1 July heating degree days 87  
Cooling Degree Days 0 1  
Month to date cooling degree days 100 44  
Year to date cooling degree days 146 73  
Since 1 June cooling degree days 136 70  
Growing Degree Days 11 (Base 50)    
Moisture  
Dew Point 54 °F    
Average Humidity 75    
Maximum Humidity 100    
Minimum Humidity 49    
Precipitation  
Precipitation 0.01 in 0.14 in 1.41 in (1958)
Month to date precipitation 5.44 3.92  
Year to date precipitation 25.72 20.12  
Sea Level Pressure  
Sea Level Pressure 30.03 in    
Wind  
Wind Speed 5 mph (WSW)    
Max Wind Speed 18 mph    
Max Gust Speed 22 mph    
Visibility 6 miles    
Events Fog , Rain    
T = Trace of Precipitation, MM = Missing Value Source: NWS Daily Summary

Daily Weather History Graph

Daily Weather History Graph

Search for Another Location

Airport or City:

Trip Planner

Search our weather history database for the weather conditions in past years. The results will help you decide how hot, cold, wet, or windy it might be!

Date:

Astronomy

Jul. 29, 2013 Rise Set
Actual Time 5:40 AM EDT 8:25 PM EDT
Civil Twilight 5:07 AM EDT 8:58 PM EDT
Nautical Twilight 4:24 AM EDT 9:40 PM EDT
Astronomical Twilight 3:35 AM EDT 10:29 PM EDT
Moon No Moon Rise 1:40 PM EDT (7/29)
Length of Visible Light 15h 51m
Length of Day
14h 44m
Waning Gibbous, 51% of the Moon is Illuminated
Jul 29
Waning Gibbous
Jul 29
Last Quarter
Aug 6
New
Aug 14
First Quarter
Aug 20
Full

Hourly Weather History & Observations

Time (EDT) Temp. Dew Point Humidity Pressure Visibility Wind Dir Wind Speed Gust Speed Precip Events Conditions
12:25 AM 57.2 °F 57.2 °F 100% 29.99 in 2.0 mi Calm Calm - N/A   Partly Cloudy
12:36 AM 57.2 °F 57.2 °F 100% 29.99 in 1.5 mi Calm Calm - N/A   Scattered Clouds
12:51 AM 57.0 °F 55.9 °F 96% 29.98 in 1.8 mi NW 3.5 mph - N/A   Partly Cloudy
12:59 AM 57.2 °F 57.2 °F 100% 29.99 in 2.5 mi Calm Calm - N/A   Mostly Cloudy
1:08 AM 57.2 °F 57.2 °F 100% 29.99 in 3.0 mi Calm Calm - N/A   Mostly Cloudy
1:22 AM 57.2 °F 57.2 °F 100% 29.98 in 4.0 mi Calm Calm - N/A   Mostly Cloudy
1:32 AM 57.2 °F 57.2 °F 100% 29.99 in 4.0 mi Calm Calm - N/A   Mostly Cloudy
1:51 AM 59.0 °F 57.9 °F 96% 29.98 in 4.0 mi Calm Calm - N/A   Overcast
2:01 AM 60.8 °F 57.2 °F 88% 29.99 in 6.0 mi Calm Calm - N/A   Overcast
2:09 AM 60.8 °F 57.2 °F 88% 29.99 in 9.0 mi Variable 3.5 mph - 0.00 in Rain Light Rain
2:51 AM 57.9 °F 55.9 °F 93% 30.01 in 10.0 mi WSW 8.1 mph - 0.01 in   Overcast
3:00 AM 57.2 °F 55.4 °F 94% 30.02 in 9.0 mi WSW 6.9 mph - N/A   Overcast
3:13 AM 57.2 °F 55.4 °F 94% 30.01 in 9.0 mi SW 4.6 mph - N/A   Overcast
3:20 AM 57.2 °F 55.4 °F 94% 30.01 in 10.0 mi SW 3.5 mph - N/A   Overcast
3:51 AM 55.9 °F 55.0 °F 97% 30.00 in 4.0 mi Calm Calm - N/A   Mostly Cloudy
4:32 AM 55.4 °F 55.4 °F 100% 30.02 in 3.0 mi Calm Calm - N/A   Mostly Cloudy
4:43 AM 55.4 °F 55.4 °F 100% 30.02 in 1.5 mi Calm Calm - N/A   Scattered Clouds
4:51 AM 54.0 °F 54.0 °F 100% 30.01 in 0.5 mi Calm Calm - N/A Fog Fog
5:02 AM 53.6 °F 53.6 °F 100% 30.02 in 1.0 mi Calm Calm - N/A   Clear
5:05 AM 53.6 °F 53.6 °F 100% 30.02 in 0.5 mi Calm Calm - N/A Fog Fog
5:13 AM 53.6 °F 53.6 °F 100% 30.02 in 0.2 mi Calm Calm - N/A Fog Fog
5:51 AM 51.1 °F 51.1 °F 100% 30.01 in 0.2 mi Calm Calm - N/A Fog Fog
6:51 AM 51.1 °F 51.1 °F 100% 30.03 in 0.5 mi Calm Calm - N/A Fog Fog
7:10 AM 53.6 °F 53.6 °F 100% 30.03 in 1.5 mi Calm Calm - N/A   Mostly Cloudy
7:17 AM 55.4 °F 55.4 °F 100% 30.03 in 2.5 mi Calm Calm - N/A   Scattered Clouds
7:24 AM 55.4 °F 55.4 °F 100% 30.03 in 5.0 mi Calm Calm - N/A   Partly Cloudy
7:51 AM 57.0 °F 57.0 °F 100% 30.04 in 9.0 mi SW 3.5 mph - N/A   Clear
8:46 AM 60.8 °F 57.2 °F 88% 30.04 in 10.0 mi SW 4.6 mph - N/A   Partly Cloudy
8:51 AM 61.0 °F 57.0 °F 87% 30.04 in 10.0 mi Calm Calm - N/A   Partly Cloudy
9:51 AM 64.0 °F 55.9 °F 75% 30.04 in 10.0 mi South 4.6 mph - N/A   Clear
10:51 AM 64.0 °F 55.0 °F 73% 30.04 in 10.0 mi WSW 5.8 mph - N/A   Scattered Clouds
11:51 AM 69.1 °F 52.0 °F 54% 30.03 in 10.0 mi SSW 11.5 mph - N/A   Partly Cloudy
12:51 PM 68.0 °F 52.0 °F 56% 30.03 in 10.0 mi WSW 6.9 mph - N/A   Scattered Clouds
1:51 PM 71.1 °F 52.0 °F 51% 30.02 in 10.0 mi WSW 11.5 mph 20.7 mph N/A   Scattered Clouds
2:51 PM 64.9 °F 52.0 °F 63% 30.04 in 10.0 mi Variable 3.5 mph - N/A   Overcast
3:51 PM 66.0 °F 53.1 °F 63% 30.04 in 10.0 mi SW 9.2 mph - N/A   Overcast
4:51 PM 69.1 °F 53.1 °F 57% 30.04 in 10.0 mi SW 13.8 mph 19.6 mph N/A   Scattered Clouds
5:51 PM 66.9 °F 52.0 °F 59% 30.05 in 10.0 mi SW 12.7 mph 18.4 mph N/A   Mostly Cloudy
6:51 PM 64.9 °F 53.1 °F 65% 30.06 in 10.0 mi Variable 5.8 mph - N/A   Partly Cloudy
7:51 PM 63.0 °F 48.0 °F 58% 30.07 in 10.0 mi Variable 6.9 mph - N/A   Clear
8:51 PM 60.1 °F 48.0 °F 64% 30.09 in 10.0 mi West 4.6 mph - N/A   Mostly Cloudy
9:51 PM 57.9 °F 50.0 °F 75% 30.11 in 10.0 mi Calm Calm - N/A   Overcast
10:51 PM 55.9 °F 52.0 °F 87% 30.11 in 10.0 mi Variable 3.5 mph - N/A   Overcast
11:51 PM 57.0 °F 53.1 °F 87% 30.10 in 9.0 mi Calm Calm - 0.00 in Rain Light Rain